| time (UTC) | temp F | wind direction | speed MPH | gust MPH | rain 1hr in | rain 24hr in | rain mn in | humidity % | barometer mb |
| 20260902191545 | 78 | 40 | 2.0 | 5.0 | 0.00 | 0.00 | 0.00 | 45 | 998.8 |
| 20260902190040 | 76 | 43 | 3.0 | 6.0 | 0.00 | 0.00 | 0.00 | 44 | 999.2 |
| 20260902184537 | 73 | 42 | 3.0 | 7.0 | 0.00 | 0.00 | 0.00 | 47 | 999.3 |
| 20260902183044 | 72 | 45 | 4.0 | 6.0 | 0.00 | 0.00 | 0.00 | 49 | 999.3 |
| 20260902181534 | 73 | 44 | 4.0 | 6.0 | 0.00 | 0.00 | 0.00 | 45 | 999.4 |
| 20260902180033 | 73 | 41 | 4.0 | 8.0 | 0.00 | 0.00 | 0.00 | 47 | 999.5 |
| 20260902174531 | 72 | 30 | 4.0 | 9.0 | 0.00 | 0.00 | 0.00 | 53 | 999.6 |
| 20260902173031 | 71 | 355 | 3.0 | 6.0 | 0.00 | 0.00 | 0.00 | 51 | 999.6 |
| 20260902171530 | 72 | 340 | 2.0 | 4.0 | 0.00 | 0.00 | 0.00 | 50 | 999.6 |
| 20260902170028 | 72 | 335 | 3.0 | 6.0 | 0.00 | 0.00 | 0.00 | 54 | 999.9 |
| 20260902164526 | 71 | 246 | 2.0 | 5.0 | 0.00 | 0.00 | 0.00 | 55 | 999.8 |
| 20260902163024 | 68 | 208 | 0.0 | 0.0 | 0.00 | 0.00 | 0.00 | 62 | 1000.1 |
| 20260902161521 | 66 | 207 | 0.0 | 0.0 | 0.00 | 0.00 | 0.00 | 59 | 1000.3 |
| 20260902160009 | 64 | 206 | 0.0 | 0.0 | 0.00 | 0.00 | 0.00 | 62 | 1000.6 |
| 20260902154506 | 64 | 206 | 0.0 | 0.0 | 0.00 | 0.00 | 0.00 | 64 | 1000.7 |
| 20260902153005 | 64 | 292 | 2.0 | 4.0 | 0.00 | 0.00 | 0.00 | 63 | 1000.5 |
| 20260902151507 | 66 | 289 | 0.0 | 0.0 | 0.00 | 0.00 | 0.00 | 57 | 1000.6 |
| 20260902150002 | 65 | 289 | 0.0 | 0.0 | 0.00 | 0.00 | 0.00 | 61 | 1000.6 |
| 20260902144601 | 63 | 289 | 0.0 | 3.0 | 0.00 | 0.00 | 0.00 | 64 | 1000.8 |
| 20260902143054 | 60 | 289 | 1.0 | 3.0 | 0.00 | 0.00 | 0.00 | 69 | 1000.8 |
| 20260902141550 | 57 | 290 | 2.0 | 5.0 | 0.00 | 0.00 | 0.00 | 77 | 1001.0 |
| 20260902140046 | 54 | 293 | 0.0 | 1.0 | 0.00 | 0.00 | 0.00 | 82 | 1001.1 |
| 20260902134542 | 51 | 293 | 1.0 | 3.0 | 0.00 | 0.00 | 0.00 | 85 | 1001.3 |
| 20260902133045 | 49 | 293 | 0.0 | 3.0 | 0.00 | 0.00 | 0.00 | 86 | 1001.3 |
| 20260902131541 | 48 | 293 | 0.0 | 3.0 | 0.00 | 0.00 | 0.00 | 86 | 1001.3 |
| 20260902130030 | 48 | 293 | 2.0 | 4.0 | 0.00 | 0.00 | 0.00 | 85 | 1001.4 |
| 20260902124531 | 49 | 293 | 0.0 | 0.0 | 0.00 | 0.00 | 0.00 | 83 | 1001.1 |
| 20260902123024 | 50 | 293 | 0.0 | 3.0 | 0.00 | 0.00 | 0.00 | 82 | 1001.2 |
| 20260902121521 | 51 | 293 | 0.0 | 3.0 | 0.00 | 0.00 | 0.00 | 81 | 1001.3 |
| 20260902120019 | 51 | 293 | 0.0 | 2.0 | 0.00 | 0.00 | 0.00 | 81 | 1001.4 |
| 20260902114517 | 51 | 293 | 0.0 | 5.0 | 0.00 | 0.00 | 0.00 | 79 | 1001.7 |
| 20260902113014 | 52 | 293 | 0.0 | 0.0 | 0.00 | 0.00 | 0.00 | 74 | 1001.6 |
| 20260902111511 | 53 | 293 | 0.0 | 0.0 | 0.00 | 0.00 | 0.00 | 73 | 1001.7 |
| 20260902110008 | 54 | 293 | 0.0 | 5.0 | 0.00 | 0.00 | 0.00 | 70 | 1001.7 |
| 20260902104504 | 56 | 283 | 0.0 | 4.0 | 0.00 | 0.00 | 0.00 | 66 | 1001.7 |
| 20260902103107 | 58 | 283 | 5.0 | 8.0 | 0.00 | 0.00 | 0.00 | 65 | 1001.6 |
| 20260902101601 | 59 | 290 | 1.0 | 5.0 | 0.00 | 0.00 | 0.00 | 65 | 1001.6 |
| 20260902100055 | 60 | 296 | 1.0 | 11.0 | 0.00 | 0.00 | 0.00 | 60 | 1002.0 |
| 20260902094551 | 63 | 238 | 2.0 | 5.0 | 0.00 | 0.00 | 0.00 | 53 | 1001.8 |
| 20260902093104 | 66 | 198 | 3.0 | 7.0 | 0.00 | 0.00 | 0.00 | 49 | 1001.8 |
| 20260902091551 | 67 | 172 | 7.0 | 11.0 | 0.00 | 0.00 | 0.00 | 46 | 1001.7 |
| 20260902090043 | 68 | 161 | 10.0 | 17.0 | 0.00 | 0.00 | 0.00 | 44 | 1001.8 |
| 20260902084549 | 69 | 159 | 11.0 | 18.0 | 0.00 | 0.00 | 0.00 | 43 | 1001.6 |
| 20260902083044 | 69 | 157 | 14.0 | 20.0 | 0.00 | 0.00 | 0.00 | 42 | 1001.6 |
| 20260902081532 | 70 | 151 | 13.0 | 20.0 | 0.00 | 0.00 | 0.00 | 41 | 1001.8 |
| 20260902080029 | 70 | 136 | 12.0 | 24.0 | 0.00 | 0.00 | 0.00 | 40 | 1001.9 |
| 20260902074526 | 71 | 168 | 16.0 | 23.0 | 0.00 | 0.00 | 0.00 | 39 | 1001.9 |
| 20260902073024 | 72 | 138 | 14.0 | 21.0 | 0.00 | 0.00 | 0.00 | 39 | 1001.9 |
| 20260902071525 | 72 | 140 | 15.0 | 22.0 | 0.00 | 0.00 | 0.00 | 39 | 1002.3 |
| 20260902070022 | 72 | 148 | 14.0 | 22.0 | 0.00 | 0.00 | 0.00 | 38 | 1002.3 |
| 20260902064519 | 72 | 148 | 13.0 | 21.0 | 0.00 | 0.00 | 0.00 | 38 | 1002.4 |
| 20260902063022 | 72 | 165 | 14.0 | 25.0 | 0.00 | 0.00 | 0.00 | 37 | 1002.7 |
| 20260902061534 | 72 | 157 | 15.0 | 23.0 | 0.00 | 0.00 | 0.00 | 37 | 1002.7 |
| 20260902060012 | 73 | 128 | 13.0 | 21.0 | 0.00 | 0.00 | 0.00 | 37 | 1002.6 |
| 20260902054512 | 73 | 151 | 14.0 | 24.0 | 0.00 | 0.00 | 0.00 | 36 | 1002.8 |
| 20260902053016 | 74 | 147 | 14.0 | 20.0 | 0.00 | 0.00 | 0.00 | 36 | 1002.8 |
| 20260902051510 | 74 | 149 | 14.0 | 22.0 | 0.00 | 0.00 | 0.00 | 35 | 1002.8 |
| 20260902050010 | 74 | 150 | 15.0 | 21.0 | 0.00 | 0.00 | 0.00 | 36 | 1003.1 |
| 20260902044509 | 74 | 153 | 12.0 | 21.0 | 0.00 | 0.00 | 0.00 | 36 | 1002.9 |
| 20260902043007 | 74 | 140 | 12.0 | 22.0 | 0.00 | 0.00 | 0.00 | 35 | 1003.0 |
| 20260902041507 | 74 | 128 | 15.0 | 23.0 | 0.00 | 0.00 | 0.00 | 35 | 1003.2 |
| 20260902040005 | 73 | 124 | 12.0 | 20.0 | 0.00 | 0.00 | 0.00 | 36 | 1003.2 |
| 20260902034505 | 73 | 125 | 9.0 | 15.0 | 0.00 | 0.00 | 0.00 | 37 | 1003.4 |
| 20260902033006 | 70 | 159 | 7.0 | 12.0 | 0.00 | 0.00 | 0.00 | 41 | 1003.6 |
| 20260902031505 | 68 | 135 | 2.0 | 5.0 | 0.00 | 0.00 | 0.00 | 45 | 1003.5 |
| 20260902030004 | 68 | 116 | 7.0 | 10.0 | 0.00 | 0.00 | 0.00 | 44 | 1003.4 |
| 20260902024507 | 68 | 117 | 6.0 | 8.0 | 0.00 | 0.00 | 0.00 | 47 | 1003.4 |
| 20260902023002 | 69 | 119 | 6.0 | 9.0 | 0.00 | 0.00 | 0.00 | 46 | 1003.3 |
| 20260902021504 | 71 | 109 | 4.0 | 7.0 | 0.00 | 0.00 | 0.00 | 43 | 1003.3 |
| 20260902020003 | 74 | 117 | 6.0 | 8.0 | 0.00 | 0.00 | 0.00 | 39 | 1003.2 |
| 20260902014600 | 76 | 118 | 6.0 | 9.0 | 0.00 | 0.00 | 0.00 | 38 | 1003.3 |
| 20260902013100 | 78 | 115 | 6.0 | 9.0 | 0.00 | 0.00 | 0.00 | 36 | 1003.2 |
| 20260902011559 | 80 | 126 | 4.0 | 8.0 | 0.00 | 0.00 | 0.00 | 31 | 1003.3 |
| 20260902010100 | 81 | 138 | 4.0 | 9.0 | 0.00 | 0.00 | 0.00 | 30 | 1003.4 |
| 20260902004557 | 82 | 123 | 5.0 | 13.0 | 0.00 | 0.00 | 0.00 | 29 | 1003.4 |
| 20260902003056 | 83 | 107 | 6.0 | 11.0 | 0.00 | 0.00 | 0.00 | 29 | 1003.5 |
| 20260902001554 | 84 | 135 | 5.0 | 12.0 | 0.00 | 0.00 | 0.00 | 27 | 1003.6 |
| 20260902000059 | 85 | 146 | 7.0 | 12.0 | 0.00 | 0.00 | 0.00 | 26 | 1003.8 |
| 20260901234552 | 86 | 173 | 8.0 | 14.0 | 0.00 | 0.00 | 0.00 | 24 | 1003.8 |
| 20260901233051 | 86 | 154 | 5.0 | 10.0 | 0.00 | 0.00 | 0.00 | 24 | 1003.8 |
| 20260901231550 | 85 | 137 | 5.0 | 9.0 | 0.00 | 0.00 | 0.00 | 25 | 1004.0 |
| 20260901230050 | 85 | 150 | 7.0 | 15.0 | 0.00 | 0.00 | 0.00 | 22 | 1004.1 |
| 20260901224546 | 86 | 161 | 9.0 | 13.0 | 0.00 | 0.00 | 0.00 | 23 | 1004.4 |
| 20260901223049 | 87 | 177 | 8.0 | 12.0 | 0.00 | 0.00 | 0.00 | 24 | 1004.4 |
| 20260901221543 | 87 | 156 | 4.0 | 12.0 | 0.00 | 0.00 | 0.00 | 23 | 1004.6 |
| 20260901220040 | 86 | 198 | 8.0 | 15.0 | 0.00 | 0.00 | 0.00 | 23 | 1004.8 |
| 20260901214542 | 87 | 158 | 8.0 | 13.0 | 0.00 | 0.00 | 0.00 | 22 | 1005.0 |
| 20260901213101 | 86 | 190 | 6.0 | 10.0 | 0.00 | 0.00 | 0.00 | 23 | 1005.3 |
| 20260901211536 | 86 | 156 | 7.0 | 15.0 | 0.00 | 0.00 | 0.00 | 24 | 1005.4 |
| 20260901210034 | 86 | 136 | 7.0 | 15.0 | 0.00 | 0.00 | 0.00 | 25 | 1005.6 |
| 20260901204538 | 87 | 189 | 7.0 | 14.0 | 0.00 | 0.00 | 0.00 | 23 | 1005.6 |
| 20260901203034 | 85 | 159 | 5.0 | 15.0 | 0.00 | 0.00 | 0.00 | 27 | 1005.7 |
| 20260901201530 | 85 | 155 | 5.0 | 14.0 | 0.00 | 0.00 | 0.00 | 25 | 1005.8 |
| 20260901200027 | 86 | 196 | 5.0 | 16.0 | 0.00 | 0.00 | 0.00 | 27 | 1006.0 |
| 20260901194526 | 86 | 180 | 9.0 | 14.0 | 0.00 | 0.00 | 0.00 | 24 | 1006.1 |
| 20260901193022 | 84 | 157 | 8.0 | 17.0 | 0.00 | 0.00 | 0.00 | 26 | 1006.4 |